User: anonymous   Login
Location: Oshawa
(43.9000°N, 78.8670°W)
Time: 15:21:08
(UTC-05:00)
Language:

Iridium 46 - Orbit

View from above orbital plane
View from above orbital plane
View from above satellite
View from above satellite

Ground track
Ground track

The orbit data is extracted from the following two-line orbital elements,

1 24905U 97043C   14332.32537607  .00000438  00000-0  14950-3 0   964
2 24905 086.3964 285.4105 0002183 103.4312 256.7127 14.34218071904263
Epoch (UTC): 28 November 2014 07:48:32
Eccentricity: 0.0002183
inclination: 86.3964°
perigee height: 776 km
apogee height: 779 km
right ascension of ascending node: 285.4105°
argument of perigee: 103.4312°
revolutions per day: 14.34218071
mean anomaly at epoch: 256.7127°
orbit number at epoch: 90426

The dashed part of the orbit path shows where the satellite is in the earth's shadow,  

DLR